STARLINK-1257 (45402 NORAD) Tracking and Keplerian Element Data

This shows tracking and keplerian element data for the satellite.

Feedback or suggestion? Click here.




ElementValue
Catalog45402
NameSTARLINK-1257
Epoch Orbit1102
Epoch Day145.91667824
Epoch Year2020
RAAN284.2269
Inclination52.9993
Eccentricity0.000169
Argument of Perigee33.1545
Mean Anonmoly143.2833
Mean Motion15.62774504
Decay Rate0.00017602
L11 45402U 20019AU 20145.91667824 .00017602 00000-0 19748-3 0 9990
L22 45402 52.9993 284.2269 0001690 33.1545 143.2833 15.62774504 11023

Live tracking and technical data element details for STARLINK-1257 (NORAD 45402). STARLINK-1257 can be tracked NOW for your location showing map with azimuth and elevation plus other details from your city location.

Track the satellite on the map from your city or location and see movement details for azimuth, elevation, latitude, longitude, range, height, and movement on the map or in text.







IsCatalogInMostPopularTable: catalog: 45402, numindb: 13
Update: records affected: 1



GetName: 45402 STARLINK-1257

Hit Count: updated at: Tue, 26 May 2020 03:26:42 GMT